QPF
0.03 0.03 0.02 0.01 0.01 0.01 0.01 0.02 0.01 0.01 0.01 0.01 0.01 0.01 0.01 0.00 0.00 0.00 0.00 0.00 0.01 0.01 0.02 0.02 0.02 0.02 0.02 0.02 0.02 0.03 0.04 0.03 0.02 0.02 0.03 0.02 0.01 0.01 0.02 0.03 0.02 0.02 0.02
0.03 0.03 0.02 0.01 0.01 0.01 0.01 0.01 0.02 0.01 0.01 0.01 0.01 0.01 0.01 0.01 0.00 0.00 0.00 0.01 0.01 0.01 0.02 0.02 0.02 0.02 0.02 0.02 0.01 0.01 0.02 0.02 0.02 0.02 0.03 0.03 0.02 0.02 0.02 0.02 0.04 0.04 0.03
0.03 0.03 0.02 0.02 0.02 0.02 0.01 0.01 0.02 0.02 0.01 0.01 0.01 0.01 0.01 0.01 0.01 0.00 0.00 0.01 0.01 0.01 0.01 0.01 0.02 0.02 0.02 0.02 0.01 0.01 0.01 0.01 0.01 0.01 0.02 0.02 0.02 0.01 0.01 0.02 0.04 0.06 0.06
0.03 0.03 0.03 0.02 0.03 0.02 0.02 0.01 0.01 0.01 0.01 0.00 0.01 0.02 0.01 0.01 0.01 0.00 0.00 0.00 0.01 0.01 0.01 0.01 0.01 0.02 0.02 0.03 0.03 0.02 0.01 0.01 0.01 0.01 0.01 0.02 0.02 0.02 0.01 0.03 0.04 0.04 0.04
0.03 0.03 0.03 0.02 0.03 0.03 0.02 0.02 0.02 0.01 0.01 0.01 0.01 0.01 0.01 0.00 0.00 0.00 0.00 0.00 0.00 0.01 0.01 0.01 0.01 0.01 0.02 0.02 0.02 0.02 0.02 0.01 0.01 0.01 0.01 0.02 0.02 0.03 0.03 0.04 0.04 0.03 0.03
0.03 0.03 0.02 0.03 0.03 0.03 0.03 0.02 0.02 0.02 0.01 0.01 0.01 0.01 0.01 0.01 0.01 0.01 0.01 0.01 0.01 0.01 0.01 0.01 0.01 0.01 0.02 0.03 0.02 0.02 0.01 0.02 0.02 0.02 0.01 0.02 0.02 0.02 0.02 0.03 0.04 0.03 0.03
0.02 0.02 0.02 0.02 0.03 0.03 0.03 0.03 0.02 0.02 0.02 0.01 0.01 0.01 0.01 0.01 0.01 0.01 0.02 0.02 0.01 0.01 0.01 0.01 0.01 0.01 0.02 0.02 0.02 0.02 0.01 0.01 0.01 0.01 0.01 0.01 0.01 0.01 0.02 0.02 0.04 0.03 0.03
0.03 0.02 0.02 0.02 0.02 0.02 0.02 0.02 0.03 0.03 0.02 0.01 0.01 0.01 0.01 0.01 0.01 0.01 0.02 0.02 0.01 0.01 0.01 0.01 0.01 0.01 0.01 0.01 0.01 0.01 0.01 0.01 0.01 0.01 0.01 0.01 0.01 0.01 0.02 0.02 0.03 0.03 0.03
0.03 0.02 0.02 0.02 0.02 0.02 0.03 0.02 0.02 0.03 0.02 0.01 0.01 0.01 0.01 0.01 0.01 0.01 0.01 0.01 0.02 0.02 0.01 0.01 0.01 0.01 0.01 0.01 0.02 0.02 0.01 0.02 0.01 0.01 0.01 0.01 0.01 0.01 0.01 0.02 0.02 0.03 0.04
0.05 0.04 0.03 0.02 0.02 0.02 0.02 0.02 0.02 0.03 0.02 0.02 0.02 0.02 0.01 0.01 0.01 0.01 0.01 0.01 0.02 0.02 0.01 0.01 0.02 0.02 0.02 0.01 0.01 0.01 0.01 0.01 0.01 0.01 0.01 0.01 0.01 0.01 0.01 0.01 0.01 0.01 0.02
0.06 0.05 0.03 0.02 0.02 0.02 0.02 0.01 0.02 0.03 0.03 0.03 0.02 0.02 0.02 0.01 0.02 0.01 0.01 0.01 0.01 0.02 0.02 0.01 0.02 0.02 0.02 0.02 0.01 0.01 0.00 0.01 0.01 0.00 0.01 0.01 0.01 0.01 0.01 0.01 0.01 0.01 0.01
0.04 0.04 0.02 0.02 0.01 0.02 0.02 0.02 0.02 0.04 0.03 0.03 0.03 0.03 0.03 0.03 0.02 0.01 0.01 0.01 0.01 0.02 0.03 0.01 0.01 0.01 0.02 0.02 0.02 0.01 0.01 0.01 0.01 0.01 0.01 0.01 0.02 0.01 0.01 0.01 0.01 0.00 0.00
0.04 0.03 0.02 0.01 0.01 0.02 0.02 0.02 0.03 0.03 0.03 0.03 0.03 0.02 0.02 0.02 0.02 0.02 0.01 0.01 0.01 0.01 0.03 0.03 0.01 0.01 0.02 0.02 0.02 0.02 0.01 0.01 0.01 0.01 0.01 0.01 0.01 0.01 0.02 0.02 0.02 0.01 0.01
0.04 0.02 0.01 0.01 0.01 0.01 0.02 0.02 0.02 0.03 0.03 0.03 0.03 0.03 0.03 0.02 0.02 0.02 0.01 0.01 0.01 0.02 0.03 0.04 0.02 0.02 0.03 0.03 0.03 0.03 0.02 0.01 0.01 0.01 0.01 0.01 0.01 0.01 0.01 0.02 0.02 0.03 0.03
0.04 0.02 0.01 0.01 0.01 0.01 0.02 0.02 0.02 0.02 0.03 0.03 0.03 0.04 0.04 0.03 0.02 0.02 0.02 0.01 0.02 0.03 0.04 0.05 0.03 0.03 0.03 0.04 0.03 0.03 0.02 0.01 0.00 0.01 0.00 0.00 0.01 0.01 0.01 0.01 0.01 0.02 0.02
0.03 0.03 0.03 0.02 0.01 0.01 0.02 0.02 0.02 0.02 0.03 0.03 0.04 0.04 0.04 0.05 0.04 0.03 0.02 0.02 0.03 0.03 0.04 0.04 0.04 0.02 0.03 0.03 0.04 0.04 0.03 0.02 0.01 0.01 0.01 0.01 0.01 0.01 0.01 0.01 0.01 0.01 0.01
0.02 0.03 0.03 0.03 0.03 0.03 0.02 0.01 0.02 0.02 0.03 0.03 0.04 0.05 0.05 0.05 0.06 0.05 0.04 0.03 0.03 0.04 0.03 0.03 0.03 0.02 0.03 0.03 0.04 0.04 0.04 0.03 0.02 0.02 0.02 0.01 0.01 0.01 0.01 0.01 0.01 0.01 0.01
0.03 0.02 0.02 0.02 0.03 0.04 0.03 0.02 0.01 0.03 0.04 0.03 0.04 0.04 0.05 0.05 0.06 0.06 0.06 0.04 0.03 0.03 0.02 0.02 0.02 0.03 0.02 0.02 0.02 0.03 0.04 0.04 0.04 0.03 0.01 0.01 0.01 0.01 0.01 0.01 0.01 0.02 0.02
0.02 0.01 0.01 0.01 0.02 0.02 0.03 0.02 0.01 0.02 0.03 0.03 0.02 0.03 0.04 0.04 0.05 0.06 0.05 0.04 0.02 0.02 0.02 0.02 0.02 0.02 0.02 0.02 0.01 0.02 0.02 0.03 0.03 0.03 0.02 0.01 0.01 0.01 0.01 0.01 0.01 0.02 0.02
0.02 0.02 0.02 0.02 0.02 0.02 0.03 0.03 0.03 0.02 0.02 0.02 0.02 0.02 0.02 0.02 0.03 0.03 0.04 0.03 0.03 0.02 0.02 0.03 0.02 0.02 0.01 0.01 0.02 0.02 0.02 0.02 0.02 0.02 0.02 0.02 0.01 0.01 0.02 0.02 0.03 0.03 0.03
0.02 0.02 0.02 0.01 0.01 0.02 0.02 0.03 0.03 0.02 0.02 0.02 0.02 0.02 0.02 0.02 0.01 0.02 0.02 0.02 0.02 0.03 0.02 0.02 0.02 0.02 0.01 0.01 0.01 0.02 0.02 0.02 0.02 0.02 0.02 0.02 0.02 0.03 0.03 0.04 0.04 0.04 0.04
0.02 0.01 0.01 0.01 0.01 0.01 0.02 0.02 0.02 0.03 0.02 0.02 0.03 0.03 0.02 0.02 0.02 0.01 0.01 0.01 0.02 0.02 0.02 0.02 0.02 0.02 0.02 0.02 0.02 0.02 0.02 0.02 0.02 0.01 0.01 0.02 0.02 0.03 0.03 0.04 0.04 0.04 0.04
0.01 0.01 0.01 0.01 0.01 0.02 0.02 0.02 0.03 0.03 0.04 0.04 0.05 0.04 0.03 0.02 0.02 0.02 0.01 0.01 0.01 0.02 0.02 0.02 0.02 0.02 0.02 0.02 0.01 0.01 0.02 0.02 0.02 0.02 0.01 0.02 0.02 0.02 0.03 0.03 0.03 0.04 0.03
0.02 0.01 0.01 0.01 0.02 0.02 0.02 0.02 0.02 0.02 0.03 0.03 0.03 0.03 0.02 0.02 0.02 0.02 0.01 0.01 0.01 0.02 0.02 0.02 0.01 0.01 0.01 0.02 0.02 0.01 0.02 0.02 0.02 0.02 0.02 0.02 0.02 0.02 0.03 0.03 0.03 0.03 0.03
0.01 0.01 0.01 0.02 0.02 0.02 0.02 0.02 0.02 0.02 0.02 0.02 0.02 0.02 0.02 0.02 0.03 0.03 0.02 0.02 0.02 0.02 0.02 0.02 0.01 0.01 0.01 0.01 0.01 0.02 0.02 0.02 0.02 0.02 0.02 0.02 0.02 0.02 0.02 0.02 0.03 0.02 0.02
0.01 0.01 0.01 0.01 0.01 0.02 0.02 0.02 0.02 0.02 0.02 0.02 0.02 0.02 0.02 0.02 0.03 0.03 0.03 0.03 0.03 0.03 0.02 0.02 0.01 0.01 0.01 0.01 0.02 0.02 0.03 0.02 0.02 0.02 0.02 0.02 0.02 0.02 0.01 0.02 0.02 0.02 0.02
MSLP
1016.91 1017.48 1018.07 1018.64 1019.16 1019.61 1019.98 1020.29 1020.57 1020.82 1021.08 1021.36 1021.65 1021.93 1022.21 1022.45 1022.67 1022.84 1023.00 1023.15 1023.31 1023.49 1023.70 1023.93 1024.17 1024.40 1024.60 1024.75 1024.85 1024.89 1024.88 1024.83 1024.76 1024.67 1024.57 1024.47 1024.36 1024.23 1024.08 1023.91 1023.72 1023.53 1023.35
1016.51 1017.07 1017.65 1018.24 1018.78 1019.28 1019.71 1020.09 1020.42 1020.73 1021.04 1021.34 1021.64 1021.93 1022.21 1022.46 1022.69 1022.89 1023.08 1023.27 1023.46 1023.67 1023.89 1024.13 1024.36 1024.57 1024.74 1024.87 1024.96 1025.00 1025.00 1024.98 1024.94 1024.89 1024.82 1024.74 1024.63 1024.48 1024.29 1024.06 1023.80 1023.53 1023.26
1016.12 1016.68 1017.26 1017.84 1018.40 1018.93 1019.40 1019.83 1020.22 1020.59 1020.93 1021.26 1021.58 1021.89 1022.17 1022.44 1022.68 1022.91 1023.12 1023.34 1023.57 1023.81 1024.05 1024.29 1024.52 1024.72 1024.89 1025.02 1025.11 1025.16 1025.19 1025.20 1025.19 1025.18 1025.14 1025.08 1024.97 1024.81 1024.59 1024.31 1023.98 1023.63 1023.27
1015.73 1016.29 1016.88 1017.46 1018.02 1018.56 1019.07 1019.54 1019.98 1020.40 1020.79 1021.16 1021.50 1021.83 1022.13 1022.41 1022.67 1022.91 1023.16 1023.41 1023.66 1023.93 1024.19 1024.45 1024.69 1024.90 1025.07 1025.20 1025.30 1025.37 1025.42 1025.45 1025.48 1025.50 1025.49 1025.44 1025.34 1025.17 1024.93 1024.61 1024.23 1023.81 1023.37
1015.31 1015.90 1016.49 1017.07 1017.64 1018.19 1018.73 1019.23 1019.72 1020.18 1020.63 1021.04 1021.43 1021.78 1022.11 1022.41 1022.69 1022.95 1023.22 1023.49 1023.77 1024.06 1024.35 1024.63 1024.88 1025.11 1025.29 1025.43 1025.54 1025.62 1025.68 1025.73 1025.77 1025.81 1025.81 1025.77 1025.67 1025.50 1025.24 1024.90 1024.49 1024.02 1023.52
1014.84 1015.46 1016.07 1016.67 1017.25 1017.82 1018.38 1018.93 1019.46 1019.98 1020.48 1020.95 1021.38 1021.78 1022.13 1022.46 1022.76 1023.05 1023.33 1023.63 1023.93 1024.24 1024.55 1024.85 1025.12 1025.35 1025.55 1025.69 1025.80 1025.89 1025.95 1025.99 1026.03 1026.06 1026.06 1026.02 1025.92 1025.75 1025.49 1025.15 1024.73 1024.24 1023.71
1014.28 1014.97 1015.61 1016.24 1016.84 1017.44 1018.03 1018.63 1019.22 1019.80 1020.36 1020.89 1021.38 1021.82 1022.22 1022.57 1022.89 1023.20 1023.50 1023.81 1024.12 1024.45 1024.78 1025.09 1025.38 1025.62 1025.82 1025.97 1026.08 1026.15 1026.19 1026.22 1026.24 1026.25 1026.23 1026.18 1026.08 1025.91 1025.66 1025.33 1024.92 1024.44 1023.92
1013.64 1014.39 1015.10 1015.76 1016.41 1017.05 1017.69 1018.34 1019.00 1019.65 1020.27 1020.87 1021.41 1021.90 1022.33 1022.72 1023.06 1023.38 1023.69 1024.01 1024.34 1024.68 1025.01 1025.34 1025.64 1025.89 1026.10 1026.24 1026.33 1026.39 1026.41 1026.40 1026.39 1026.36 1026.32 1026.26 1026.15 1025.99 1025.76 1025.45 1025.07 1024.63 1024.13
1012.94 1013.76 1014.53 1015.25 1015.96 1016.65 1017.36 1018.07 1018.79 1019.50 1020.20 1020.85 1021.45 1021.98 1022.45 1022.85 1023.21 1023.55 1023.87 1024.19 1024.53 1024.88 1025.23 1025.57 1025.87 1026.13 1026.34 1026.48 1026.56 1026.59 1026.58 1026.55 1026.50 1026.44 1026.37 1026.28 1026.17 1026.01 1025.81 1025.53 1025.19 1024.79 1024.33
1012.22 1013.10 1013.93 1014.72 1015.48 1016.25 1017.01 1017.79 1018.58 1019.35 1020.10 1020.80 1021.44 1022.00 1022.50 1022.93 1023.30 1023.65 1023.98 1024.32 1024.67 1025.03 1025.39 1025.73 1026.05 1026.32 1026.53 1026.67 1026.74 1026.76 1026.73 1026.67 1026.59 1026.51 1026.41 1026.31 1026.19 1026.04 1025.85 1025.60 1025.30 1024.93 1024.52
1011.53 1012.44 1013.32 1014.17 1015.00 1015.83 1016.66 1017.49 1018.33 1019.15 1019.94 1020.68 1021.35 1021.94 1022.45 1022.90 1023.29 1023.66 1024.01 1024.36 1024.73 1025.10 1025.47 1025.83 1026.16 1026.44 1026.66 1026.81 1026.88 1026.90 1026.86 1026.79 1026.70 1026.60 1026.49 1026.38 1026.25 1026.10 1025.92 1025.68 1025.40 1025.06 1024.67
1010.90 1011.83 1012.74 1013.63 1014.51 1015.39 1016.28 1017.16 1018.03 1018.89 1019.70 1020.46 1021.14 1021.75 1022.28 1022.75 1023.17 1023.56 1023.93 1024.31 1024.70 1025.09 1025.49 1025.86 1026.21 1026.51 1026.74 1026.90 1026.99 1027.01 1026.99 1026.93 1026.84 1026.74 1026.63 1026.51 1026.37 1026.21 1026.02 1025.78 1025.49 1025.16 1024.78
1010.37 1011.29 1012.21 1013.12 1014.03 1014.95 1015.86 1016.77 1017.67 1018.54 1019.36 1020.13 1020.82 1021.44 1021.99 1022.49 1022.94 1023.36 1023.77 1024.18 1024.60 1025.02 1025.44 1025.84 1026.20 1026.51 1026.77 1026.94 1027.06 1027.11 1027.11 1027.07 1027.00 1026.91 1026.81 1026.68 1026.54 1026.36 1026.14 1025.89 1025.58 1025.23 1024.84
1009.93 1010.81 1011.71 1012.62 1013.55 1014.48 1015.41 1016.33 1017.23 1018.10 1018.92 1019.69 1020.39 1021.02 1021.60 1022.13 1022.62 1023.09 1023.55 1024.01 1024.46 1024.92 1025.36 1025.77 1026.15 1026.47 1026.74 1026.94 1027.08 1027.16 1027.19 1027.19 1027.15 1027.09 1027.00 1026.88 1026.72 1026.52 1026.28 1025.98 1025.64 1025.25 1024.83
1009.55 1010.37 1011.23 1012.13 1013.05 1013.98 1014.91 1015.83 1016.72 1017.58 1018.40 1019.17 1019.88 1020.53 1021.14 1021.72 1022.26 1022.79 1023.30 1023.81 1024.30 1024.79 1025.24 1025.67 1026.05 1026.38 1026.65 1026.87 1027.03 1027.14 1027.22 1027.25 1027.26 1027.23 1027.16 1027.05 1026.88 1026.66 1026.38 1026.04 1025.65 1025.22 1024.77
1009.19 1009.94 1010.76 1011.63 1012.53 1013.44 1014.36 1015.27 1016.15 1017.00 1017.81 1018.58 1019.31 1019.99 1020.65 1021.28 1021.88 1022.47 1023.04 1023.60 1024.13 1024.63 1025.10 1025.52 1025.89 1026.21 1026.48 1026.71 1026.89 1027.03 1027.14 1027.22 1027.27 1027.28 1027.25 1027.15 1026.99 1026.75 1026.44 1026.06 1025.63 1025.16 1024.67
1008.79 1009.48 1010.26 1011.09 1011.97 1012.87 1013.77 1014.66 1015.53 1016.37 1017.18 1017.96 1018.71 1019.43 1020.14 1020.83 1021.50 1022.15 1022.77 1023.37 1023.93 1024.44 1024.90 1025.31 1025.66 1025.96 1026.22 1026.44 1026.63 1026.80 1026.95 1027.08 1027.17 1027.23 1027.23 1027.16 1027.00 1026.76 1026.44 1026.03 1025.57 1025.07 1024.57
1008.34 1008.98 1009.71 1010.52 1011.37 1012.25 1013.13 1014.01 1014.87 1015.70 1016.52 1017.31 1018.09 1018.86 1019.62 1020.36 1021.09 1021.80 1022.47 1023.09 1023.67 1024.18 1024.62 1025.00 1025.33 1025.60 1025.84 1026.05 1026.25 1026.44 1026.62 1026.80 1026.94 1027.05 1027.09 1027.06 1026.93 1026.70 1026.37 1025.96 1025.49 1024.98 1024.47
1007.83 1008.43 1009.13 1009.91 1010.75 1011.61 1012.47 1013.34 1014.19 1015.02 1015.85 1016.66 1017.47 1018.27 1019.08 1019.87 1020.65 1021.40 1022.10 1022.75 1023.32 1023.82 1024.24 1024.59 1024.88 1025.13 1025.34 1025.55 1025.75 1025.97 1026.19 1026.40 1026.60 1026.76 1026.86 1026.86 1026.77 1026.57 1026.26 1025.86 1025.40 1024.90 1024.40
1007.27 1007.84 1008.53 1009.29 1010.10 1010.95 1011.81 1012.66 1013.50 1014.33 1015.16 1015.99 1016.82 1017.66 1018.49 1019.32 1020.14 1020.91 1021.64 1022.29 1022.86 1023.34 1023.74 1024.06 1024.33 1024.55 1024.75 1024.95 1025.17 1025.41 1025.66 1025.93 1026.18 1026.39 1026.54 1026.59 1026.54 1026.38 1026.10 1025.73 1025.29 1024.82 1024.35
1006.67 1007.24 1007.91 1008.66 1009.46 1010.30 1011.14 1011.98 1012.81 1013.64 1014.47 1015.30 1016.14 1016.99 1017.85 1018.70 1019.53 1020.32 1021.05 1021.70 1022.27 1022.74 1023.12 1023.43 1023.67 1023.89 1024.09 1024.30 1024.54 1024.81 1025.10 1025.41 1025.71 1025.97 1026.17 1026.27 1026.27 1026.14 1025.91 1025.57 1025.17 1024.73 1024.29
1006.06 1006.63 1007.29 1008.04 1008.83 1009.65 1010.48 1011.30 1012.12 1012.94 1013.76 1014.58 1015.42 1016.27 1017.13 1017.99 1018.82 1019.61 1020.34 1020.99 1021.55 1022.02 1022.39 1022.70 1022.95 1023.17 1023.39 1023.63 1023.89 1024.20 1024.53 1024.88 1025.22 1025.53 1025.77 1025.91 1025.94 1025.86 1025.67 1025.37 1025.01 1024.60 1024.20
1005.43 1006.00 1006.67 1007.41 1008.20 1009.00 1009.81 1010.62 1011.42 1012.21 1013.01 1013.82 1014.64 1015.48 1016.33 1017.17 1017.99 1018.78 1019.51 1020.16 1020.72 1021.20 1021.59 1021.92 1022.20 1022.45 1022.70 1022.97 1023.28 1023.62 1023.99 1024.37 1024.74 1025.08 1025.34 1025.52 1025.58 1025.53 1025.37 1025.11 1024.78 1024.41 1024.04
1004.76 1005.34 1006.02 1006.76 1007.54 1008.33 1009.13 1009.91 1010.69 1011.45 1012.23 1013.01 1013.80 1014.61 1015.44 1016.26 1017.07 1017.85 1018.58 1019.24 1019.82 1020.32 1020.75 1021.11 1021.44 1021.74 1022.04 1022.36 1022.71 1023.08 1023.48 1023.89 1024.28 1024.62 1024.90 1025.09 1025.17 1025.14 1025.01 1024.78 1024.48 1024.15 1023.81
1004.03 1004.62 1005.31 1006.05 1006.82 1007.61 1008.39 1009.15 1009.90 1010.65 1011.39 1012.13 1012.90 1013.68 1014.48 1015.29 1016.08 1016.85 1017.59 1018.26 1018.87 1019.41 1019.89 1020.31 1020.70 1021.06 1021.42 1021.79 1022.18 1022.59 1023.01 1023.43 1023.82 1024.17 1024.45 1024.63 1024.72 1024.70 1024.58 1024.38 1024.11 1023.81 1023.49
1003.20 1003.82 1004.52 1005.27 1006.04 1006.82 1007.58 1008.33 1009.06 1009.78 1010.49 1011.21 1011.95 1012.71 1013.48 1014.27 1015.05 1015.83 1016.57 1017.27 1017.92 1018.51 1019.05 1019.53 1019.99 1020.41 1020.83 1021.26 1021.69 1022.12 1022.56 1022.98 1023.37 1023.71 1023.97 1024.15 1024.24 1024.22 1024.11 1023.93 1023.69 1023.41 1023.13
Thickness
5688 5686 5685 5683 5682 5681 5680 5679 5679 5678 5678 5676 5675 5674 5672 5671 5670 5669 5668 5667 5665 5664 5663 5662 5661 5660 5658 5657 5656 5655 5653 5650 5645 5644 5644 5645 5644 5643 5643 5642 5641 5640 5640
5684 5682 5680 5679 5678 5677 5676 5675 5675 5674 5673 5672 5671 5669 5668 5667 5666 5665 5663 5663 5661 5660 5659 5658 5657 5657 5655 5654 5653 5651 5650 5649 5645 5641 5640 5640 5639 5639 5638 5637 5637 5636 5636
5680 5678 5675 5673 5672 5672 5671 5671 5671 5669 5668 5667 5666 5665 5664 5663 5662 5661 5660 5659 5658 5657 5656 5655 5654 5653 5651 5650 5649 5648 5647 5646 5643 5640 5637 5636 5635 5634 5633 5632 5632 5631 5631
5675 5673 5670 5669 5668 5667 5667 5666 5665 5665 5664 5662 5662 5661 5660 5659 5658 5657 5656 5655 5654 5654 5653 5652 5652 5651 5649 5648 5647 5645 5643 5641 5638 5636 5634 5632 5631 5630 5628 5626 5625 5625 5625
5669 5667 5666 5665 5664 5662 5661 5660 5660 5659 5659 5658 5657 5656 5655 5655 5654 5653 5652 5651 5650 5650 5649 5649 5649 5649 5648 5647 5646 5643 5641 5637 5634 5631 5629 5627 5626 5624 5623 5622 5620 5619 5619
5662 5661 5661 5659 5657 5656 5655 5654 5653 5652 5652 5652 5651 5651 5650 5651 5651 5650 5649 5647 5646 5645 5645 5645 5645 5645 5644 5644 5643 5642 5640 5636 5632 5628 5625 5623 5623 5622 5620 5619 5616 5613 5612
5657 5656 5654 5653 5651 5650 5650 5648 5647 5646 5646 5645 5646 5646 5645 5646 5647 5646 5645 5644 5642 5641 5640 5640 5641 5641 5640 5639 5638 5637 5636 5634 5633 5629 5624 5622 5621 5620 5618 5615 5612 5610 5608
5652 5650 5649 5647 5645 5645 5643 5642 5641 5640 5639 5639 5640 5640 5640 5641 5642 5642 5641 5639 5637 5636 5636 5636 5635 5635 5635 5634 5632 5630 5629 5628 5627 5626 5624 5622 5620 5619 5616 5613 5609 5606 5604
5645 5645 5644 5643 5640 5638 5637 5636 5636 5635 5634 5634 5634 5635 5634 5635 5637 5637 5635 5633 5631 5631 5631 5631 5630 5630 5631 5630 5627 5624 5623 5622 5622 5621 5620 5618 5616 5614 5612 5608 5603 5599 5596
5640 5640 5640 5638 5635 5633 5633 5632 5631 5630 5629 5629 5629 5629 5630 5630 5631 5631 5630 5628 5625 5625 5625 5625 5626 5625 5625 5624 5622 5619 5617 5616 5616 5614 5612 5611 5609 5607 5605 5603 5599 5594 5590
5635 5634 5633 5632 5631 5629 5628 5627 5625 5625 5623 5623 5622 5623 5624 5625 5626 5625 5624 5622 5621 5619 5619 5619 5619 5620 5619 5618 5617 5616 5615 5613 5610 5607 5605 5603 5601 5600 5598 5596 5594 5591 5586
5628 5627 5626 5625 5624 5624 5621 5620 5619 5618 5616 5615 5614 5615 5616 5618 5619 5619 5619 5618 5617 5615 5614 5613 5613 5614 5613 5612 5611 5610 5609 5606 5602 5599 5597 5595 5593 5592 5591 5589 5587 5585 5583
5621 5619 5619 5618 5617 5616 5615 5613 5612 5611 5610 5608 5607 5607 5608 5610 5611 5613 5613 5613 5612 5610 5609 5609 5608 5607 5606 5604 5603 5602 5600 5597 5594 5592 5590 5588 5587 5586 5584 5581 5578 5576 5574
5613 5612 5611 5610 5609 5608 5607 5606 5605 5603 5603 5602 5601 5600 5601 5602 5603 5604 5604 5604 5604 5603 5602 5601 5600 5599 5597 5596 5594 5593 5591 5589 5587 5585 5584 5582 5579 5576 5574 5572 5569 5566 5563
5605 5604 5603 5603 5601 5600 5600 5599 5599 5599 5598 5597 5597 5596 5595 5595 5599 5599 5598 5597 5596 5595 5594 5591 5589 5587 5586 5585 5584 5583 5582 5580 5578 5577 5575 5573 5570 5568 5566 5563 5560 5557 5553
5597 5596 5595 5594 5593 5592 5591 5590 5591 5591 5592 5592 5591 5591 5591 5593 5593 5592 5591 5590 5589 5588 5585 5582 5580 5579 5578 5577 5576 5575 5573 5572 5571 5569 5567 5565 5562 5560 5557 5555 5552 5548 5546
5591 5589 5588 5587 5586 5584 5583 5581 5580 5581 5582 5582 5582 5582 5583 5584 5583 5583 5582 5581 5579 5578 5575 5574 5572 5571 5570 5569 5568 5567 5565 5565 5563 5561 5559 5557 5555 5552 5550 5547 5544 5541 5538
5583 5583 5581 5579 5578 5576 5575 5574 5573 5571 5571 5571 5572 5572 5573 5573 5573 5572 5571 5569 5567 5566 5565 5565 5565 5564 5562 5561 5560 5559 5557 5556 5554 5552 5550 5548 5546 5544 5541 5539 5536 5533 5531
5574 5574 5573 5571 5570 5568 5567 5566 5564 5563 5562 5562 5561 5561 5562 5562 5561 5560 5559 5558 5558 5557 5556 5556 5556 5555 5554 5553 5552 5551 5549 5547 5546 5543 5542 5540 5537 5535 5533 5531 5528 5525 5522
5565 5566 5565 5562 5560 5559 5557 5556 5555 5554 5553 5552 5551 5551 5551 5549 5547 5547 5547 5548 5548 5548 5547 5546 5546 5545 5545 5543 5542 5541 5540 5538 5536 5534 5533 5531 5528 5526 5524 5522 5519 5516 5514
5555 5555 5555 5553 5551 5550 5548 5547 5546 5544 5543 5542 5542 5542 5541 5540 5538 5537 5536 5536 5536 5536 5536 5535 5535 5535 5534 5533 5533 5532 5531 5530 5528 5526 5525 5522 5520 5517 5516 5513 5511 5509 5507
5545 5545 5544 5544 5542 5541 5539 5538 5536 5535 5534 5533 5532 5532 5531 5530 5528 5527 5526 5526 5525 5525 5525 5525 5525 5524 5524 5524 5523 5523 5522 5521 5520 5518 5516 5514 5511 5509 5506 5504 5502 5500 5498
5536 5536 5535 5534 5532 5531 5529 5528 5526 5525 5525 5524 5523 5521 5520 5519 5518 5517 5516 5516 5515 5515 5515 5514 5514 5514 5514 5514 5514 5514 5514 5513 5512 5510 5508 5505 5502 5499 5497 5495 5494 5491 5489
5527 5526 5525 5524 5523 5521 5520 5519 5518 5517 5515 5514 5513 5511 5510 5509 5508 5507 5506 5506 5505 5505 5505 5504 5504 5504 5504 5504 5505 5505 5505 5505 5503 5502 5500 5497 5494 5491 5489 5487 5485 5483 5481
5517 5516 5515 5514 5513 5513 5512 5510 5509 5508 5507 5505 5504 5503 5502 5500 5499 5498 5497 5497 5496 5496 5496 5495 5495 5495 5495 5496 5496 5497 5497 5496 5494 5493 5490 5488 5485 5483 5481 5479 5477 5475 5473
5508 5508 5507 5505 5504 5503 5502 5501 5500 5499 5498 5498 5497 5496 5494 5493 5492 5491 5490 5489 5488 5487 5487 5487 5487 5487 5487 5488 5488 5488 5488 5487 5486 5484 5482 5479 5477 5475 5473 5471 5469 5467 5465